Hourly Data Report for April 16, 2021

VANCOUVER INTL A
BRITISH COLUMBIA
Current Station Operator: NAVCAN

49°11'41.000" N
123°11'02.000" W
4.30 m
1108395
71892
YVR

Download Data

Hourly Data (April 2021)
Hourly Data Report for April 16, 2021
TIME
LST
Temp Definition
°C
Dew Point Definition
°C
Rel Hum Definition
%
Precip. Amount Definition
mm

Wind Dir Definition
10's deg

Wind Spd Definition
km/h
Visibility Definition
km
Stn Press Definition
kPa
Hmdx Definition


Wind Chill Definition


Weather Definition


00:00 9.5 3.8 68   36 3 24.1 102.09     LegendNANA
01:00 8.8 3.1 67   36 1 24.1 102.12     Clear
02:00 9.7 3.4 65   23 3 24.1 102.17     LegendNANA
03:00 5.5 1.9 78   33 14 24.1 102.21     LegendNANA
04:00 8.3 5.0 80   34 7 24.1 102.24     Clear
05:00 6.9 3.3 78   15 4 32.2 102.29     LegendNANA
06:00 7.1 3.7 79   14 7 40.2 102.32     LegendNANA
07:00 11.0 5.8 70   5 5 32.2 102.37     Clear
08:00 12.9 5.3 60   7 4 32.2 102.41     LegendNANA
09:00 15.0 6.1 55   28 9 32.2 102.44     LegendNANA
10:00 14.7 6.3 57   28 11 32.2 102.45     Clear
11:00 14.3 8.1 66   25 10 32.2 102.44     LegendNANA
12:00 14.2 8.2 67   24 10 32.2 102.41     LegendNANA
13:00 16.2 9.7 65   27 12 32.2 102.38     Clear
14:00 17.0 10.6 66   28 9 32.2 102.34     LegendNANA
15:00 16.9 10.6 66   26 11 32.2 102.27     LegendNANA
16:00 17.9 7.8 51   28 11 32.2 102.22     Clear
17:00 16.4 9.1 62   28 11 32.2 102.18     LegendNANA
18:00 14.7 8.5 66   28 9 32.2 102.13     LegendNANA
19:00 12.2 8.5 78   28 4 32.2 102.11     Clear
20:00 11.3 9.4 88   25 7 24.1 102.14     LegendNANA
21:00 11.2 9.3 88   36 3 24.1 102.14     LegendNANA
22:00 9.9 8.7 92   30 3 24.1 102.14     Clear
23:00 10.7 7.3 79   2 4 24.1 102.18     LegendNANA

Notes on Data Quality.

Legend

  • E = Estimated
  • M = Missing
  • NA = Not Available*
  • [empty] = Indicates an unobserved value
Date modified: